Regional Weather Roundup
Issued by NWS

Home | Current Version | Previous Version | Text Only | Print | Product List | Glossary Off
Versions: 1 2 3 4 5 6 7 8 9 10 11 12 13 14 15 16 17 18 19 20 21 22 23 24 25 26 27 28 29 30 31 32 33 34 35 36 37 38 39 40 41 42 43 44 45 46 47 48 49 50

260
ASUS43 KLSX 241907
RWRMO

WEATHER SUMMARY FOR MISSOURI
NATIONAL WEATHER SERVICE SPRINGFIELD MO
200 PM CDT SUN JUL 24 2016

NOTE: "FAIR" INDICATES FEW OR NO CLOUDS BELOW 12,000 FEET WITH NO
       SIGNIFICANT WEATHER AND/OR OBSTRUCTIONS TO VISIBILITY.
       CURRENT SKY AND/OR WEATHER CONDITIONS ARE NOT AVAILABLE FOR
       CHILLICOTHE AND FARMINGTON.

MOZ001>031-035>038-043-044-053-054-242000-
...NORTHERN AND WESTERN MISSOURI...

CITY           SKY/WX    TMP DP  RH WIND       PRES   REMARKS
KANSAS CTY INT CLOUDY    91  72  53 SW5       29.94F HX  98
KANSAS C DTWN  CLOUDY    95  73  48 VRB3      29.92S HX 104
LEE`S SUMMIT   SUNNY     96  71  44 CALM      29.94F HX 103
ST JOSEPH      MOSUNNY   86  78  77 N6        29.93R HX  98
CHILLICOTHE      N/A     95  77  55 VRB5      29.91S HX 109
KIRKSVILLE     PTSUNNY   91  74  57 W9        29.92S HX 100

$$
MOZ066>068-077>081-088>096-101>105-242000-
...SOUTHWEST MISSOURI...

CITY           SKY/WX    TMP DP  RH WIND       PRES   REMARKS
SPRINGFIELD    SUNNY     95  71  45 SW5       29.99F HX 102
JOPLIN         SUNNY     94  73  50 SW8       29.97F HX 103
BRANSON        PTSUNNY   93  75  55 NW5       30.02F THUNDER HX 104

$$
MOZ032>034-039>042-045>050-055>058-069>072-242000-
...CENTRAL MISSOURI...

CITY           SKY/WX    TMP DP  RH WIND       PRES   REMARKS
COLUMBIA       MOSUNNY   93  77  59 W7        29.94F HX 107
JEFFERSON CITY SUNNY     96  74  48 W8        29.91F HX 107
ROLLA          MOSUNNY   93  75  55 SW8       29.96F HX 104
SEDALIA        SUNNY     94  75  54 SW6       29.95F HX 105
WHITEMAN AFB   MOSUNNY   93  76  58 VRB3      29.92F HX 105
OSAGE BEACH    MOSUNNY   94  75  54 VRB7      29.96F HX 105

$$
MOZ051-052-059>065-242000-
...EAST CENTRAL MISSOURI...

CITY           SKY/WX    TMP DP  RH WIND       PRES   REMARKS
ST LOUIS INTL  MOSUNNY   97  75  49 SW7       29.94F HX 109
SPIRIT OF STL  MOSUNNY   97  77  52 SW8       29.92F HX 112
ST CHARLES     SUNNY     95  78  58 SW6       29.91F HX 111

$$
MOZ072>076-082>087-097>100-106>115-242000-
...SOUTH CENTRAL AND SOUTHEAST MISSOURI...

CITY           SKY/WX    TMP DP  RH WIND       PRES   REMARKS
CAPE GIRARDEAU PTSUNNY   90  73  57 SW3       29.96F HX  98
FARMINGTON     MOSUNNY   93  77  59 W5        29.98F HX 107
POPLAR BLUFF   PTSUNNY   90  78  68 SW8       29.97F HX 104
WEST PLAINS    PTSUNNY   93  71  48 CALM      30.01F HX 100

$$



USA.gov is the U.S. government's official web portal to all federal, state and local government web resources and services.